Tracking 30922 objects as of 1-Jul-2025
HD Live streaming from Space Station
objects crossing your sky now

TJS-7

Track TJS-7 now!
TJS-7 is classified as:


NORAD ID: 49115
Int'l Code: 2021-077A
Perigee: 35,787.6 km
Apogee: 35,799.6 km
Inclination: 0.5 °
Period: 1,436.1 minutes
Semi major axis: 42164 km
RCS: Unknown
Launch date: August 24, 2021
Source: People's Republic of China (PRC)
Launch site: Xichang Space Center, China (XSC)
Your satellite tracking list
Your tracking list is empty




NASA's NSSDC Master Catalog

Two Line Element Set (TLE):
1 49115U 21077A   25181.54815881 -.00000124  00000-0  00000-0 0  9992
2 49115   0.4549  88.4074 0001421  55.2628 233.0706  1.00272360  6032
Source of the keplerian elements: AFSPC